sat.trackr.live / text

‹ back to catalog

HUYGENS

NORAD 55093 · 2023-001CN

PAYLOAD ACTIVE UNKNOWN

§ Identity

Operator
Country
NOR
Launch date
2023-01-03
Launch site
AFETR
Launch vehicle
Mass (kg)
RCS (m²)

External: N2YO · Heavens-Above · Gunter

§ Orbital elements

Epoch: 2026-05-25T03:25:05.395584Z

Period
93.53 min
Inclination
97.3261°
Eccentricity
0.0010453
Mean motion
15.39607411 rev/d
Perigee alt
440.1 km
Apogee alt
454.4 km
Semi-major
6,825.4 km
B*
2.1278e-4
RAAN
212.3196°
Arg perigee
157.3601°
Mean anomaly
202.8108°
Rev number
18,882

§ Raw data

HUYGENS1 55093U 23001CN  26145.14242356  .00008312  00000+0  21278-3 0  99992 55093  97.3261 212.3196 0010453 157.3601 202.8108 15.39607411188827

JSON: /api/v1/satellites/55093 · /tle

For live sub-satellite position, see the globe view (requires WebGL).

§ Visibility from observer

Set your observer location to see the next 7 days of passes ≥ 10°. The values pass through the URL so the page stays shareable.

No JS? Fill the form by hand. The geolocation button needs JavaScript.

§ Radio — SatNOGS DB

ModeDescriptionDownlinkUplink
FM Mode U - TLM 401.500 MHz
BPSK S-band telemetry 2.207 GHz
BPSK Wideband data (512000) 2.207 GHz

3 transmitters · refreshed weekly from db.satnogs.org